Home > Weather > Hopkinsville > Past weeks

Flag for USA Past Weather in Hopkinsville, Kentucky, USA — Yesterday and Last 2 Weeks

Now
76 °F

Clear.


Feels Like: 75 °F
Forecast: 75 / 91 °F
Wind: 5 mph from South

Location: Fort Campbell U. S. Army Airfield

Current Time: Aug 25, 2016 at 6:50:31 AM

Latest Report: Aug 25, 2016 at 5:58 AM


Visibility: 10 mi

Pressure: 30.12 "Hg

Humidity: 91%

Dew Point: 73 °F

Location of HopkinsvilleLocation

Past Weather in Hopkinsville — Graph

°F

Hopkinsville Temperature Yesterday

Maximum temperature yesterday: 90 °F (at 2:58 PM)
Minimum temperature yesterday: 73 °F (at 5:58 AM)
Average temperature yesterday: 82 °F

High & Low Weather Summary for the Past Weeks

 TemperatureHumidityPressure
High90 °F (Aug 24, 2:58 PM)100% (Aug 17, 8:04 AM)30.26 "Hg (Aug 17, 8:04 AM)
Low61 °F (Aug 22, 5:58 AM)48% (Aug 22, 1:58 PM)29.77 "Hg (Aug 20, 2:58 PM)
Average77 °F83%30.04 "Hg
* Reported Aug 10 5:58 AM — Aug 25 5:58 AM, Hopkinsville, Weather by CustomWeather, © 2016

Note: Actual official high and low records may vary slightly from our data, if they occured in-between our weather recording intervals... More about our weather records

Advertising

Hopkinsville Weather History for the Previous 24 Hours

Scroll right to see more
 ConditionsComfort  
Time TempWeatherWind HumidityBarometerVisibility
5:58 AM
Thu, Aug 25
76 °FClear.5 mph91%30.12 "Hg10 mi
4:58 AM76 °FClear.No wind92%30.10 "Hg10 mi
3:58 AM76 °FClear.3 mph91%30.09 "Hg10 mi
2:58 AM77 °FClear.No wind88%30.09 "Hg10 mi
1:58 AM78 °FClear.No wind88%30.10 "Hg10 mi
12:58 AM78 °FClear.3 mph87%30.08 "Hg10 mi
11:58 PM
Wed, Aug 24
79 °FClear.5 mph85%30.08 "Hg10 mi
10:58 PM80 °FClear.7 mph83%30.09 "Hg10 mi
9:58 PM82 °FClear.7 mph79%30.09 "Hg10 mi
8:58 PM83 °FClear.5 mph76%30.10 "Hg10 mi
7:58 PM84 °FClear.7 mph73%30.09 "Hg10 mi
6:58 PM87 °FSunny.6 mph68%30.08 "Hg10 mi
5:58 PM89 °FSunny.14 mph61%30.08 "Hg10 mi
4:58 PM90 °FSunny.15 mph61%30.09 "Hg10 mi
3:58 PM90 °FSunny.16 mph61%30.09 "Hg10 mi
2:58 PM90 °FSunny.14 mph61%30.11 "Hg10 mi
1:58 PM89 °FSunny.14 mph62%30.13 "Hg10 mi
12:58 PM89 °FSunny.13 mph63%30.15 "Hg10 mi
11:58 AM88 °FPassing clouds.14 mph67%30.17 "Hg10 mi
10:58 AM86 °FSunny.13 mph68%30.17 "Hg10 mi
9:58 AM85 °FSunny.10 mph70%30.18 "Hg10 mi
8:58 AM81 °FSunny.8 mph78%30.18 "Hg10 mi
7:58 AM76 °FSunny.6 mph84%30.18 "Hg10 mi
6:58 AM73 °FPassing clouds.1 mph92%30.18 "Hg10 mi
Weather by CustomWeather, © 2016

See weather overviewHow to use our weather pages